Total_Precipitation_Accumulation
0.13 0.29 0.72 1.19 1.81 2.46 2.19 1.50 0.88 0.67 0.59 0.68 0.76 0.74 0.83 0.95 1.36 2.11 2.21 1.98 1.67 1.85 2.23 2.76 2.91 2.48 2.29 2.30 2.27 2.34 2.51 2.50 2.53 2.58 2.59 2.68 2.89 3.08 3.22 3.19 2.95 2.81 2.74 2.63 2.81 2.93 2.83 2.73 2.53
0.23 0.53 0.96 1.44 2.17 2.43 1.92 1.64 0.84 0.63 0.60 0.63 0.67 0.72 0.77 0.70 0.69 1.18 1.96 1.81 1.51 1.61 1.83 2.26 2.70 2.40 2.11 2.18 2.23 2.36 2.44 2.41 2.42 2.49 2.57 2.75 3.00 3.15 3.10 2.91 2.74 2.70 2.57 2.46 2.53 2.74 2.64 2.40 2.31
0.36 0.69 1.03 1.48 1.56 1.55 1.29 1.08 0.68 0.60 0.57 0.68 0.72 0.68 0.69 0.93 0.90 1.28 1.65 1.47 1.50 1.57 1.77 2.32 2.67 2.54 2.33 2.27 2.34 2.31 2.27 2.27 2.41 2.57 2.74 2.97 3.00 3.01 2.86 2.69 2.56 2.43 2.26 2.28 2.37 2.60 2.54 2.36 2.29
0.43 0.76 1.00 1.06 0.92 0.80 0.69 0.58 0.44 0.52 0.49 0.59 0.69 0.68 0.82 0.97 0.92 1.25 1.45 1.46 1.48 1.64 1.83 2.18 2.46 2.44 2.36 2.17 2.16 2.25 2.33 2.39 2.54 2.54 2.66 2.85 2.80 2.83 2.69 2.44 2.32 2.19 2.03 2.04 2.25 2.54 2.57 2.41 2.32
0.55 0.85 1.05 0.85 0.68 0.63 0.54 0.45 0.41 0.50 0.49 0.61 0.74 0.91 1.18 1.19 1.02 1.30 1.47 1.44 1.41 1.49 1.74 1.95 2.31 2.48 2.42 2.28 2.32 2.37 2.38 2.44 2.52 2.44 2.49 2.52 2.55 2.59 2.39 2.19 2.19 2.11 1.89 1.87 2.28 2.55 2.47 2.22 2.14
0.58 0.83 0.77 0.58 0.57 0.51 0.47 0.38 0.35 0.45 0.52 0.61 0.80 1.10 1.56 1.65 1.41 1.36 1.34 1.24 1.32 1.46 1.63 1.81 2.19 2.44 2.54 2.44 2.46 2.45 2.45 2.55 2.50 2.40 2.39 2.30 2.15 2.26 2.18 2.03 2.11 2.08 1.97 2.12 2.44 2.51 2.28 2.09 2.08
0.65 0.77 0.53 0.41 0.47 0.46 0.41 0.33 0.38 0.38 0.50 0.72 0.91 1.20 1.75 2.13 1.76 1.42 1.39 1.43 1.56 1.54 1.61 1.92 2.19 2.22 2.28 2.57 2.60 2.60 2.58 2.68 2.63 2.49 2.35 2.19 1.97 1.94 1.88 1.95 2.07 2.09 2.19 2.38 2.58 2.55 2.36 2.12 2.12
0.34 0.42 0.41 0.36 0.30 0.37 0.37 0.31 0.34 0.39 0.46 0.64 0.83 1.14 1.79 1.82 1.56 1.49 1.72 1.83 1.99 1.85 1.72 1.88 2.05 1.98 1.95 2.17 2.52 2.63 2.50 2.45 2.49 2.51 2.33 2.34 2.22 2.04 2.01 2.01 2.08 2.19 2.32 2.63 2.76 2.70 2.54 2.24 2.23
0.21 0.33 0.32 0.25 0.22 0.29 0.28 0.29 0.33 0.35 0.41 0.63 0.80 1.06 1.40 1.35 1.31 1.38 1.98 2.18 2.23 2.07 1.97 1.90 1.84 1.80 1.84 1.89 2.23 2.51 2.59 2.53 2.57 2.63 2.50 2.49 2.54 2.27 2.34 2.32 2.54 2.62 2.62 2.95 3.16 3.17 2.89 2.63 2.63
0.18 0.20 0.16 0.12 0.13 0.19 0.24 0.30 0.32 0.37 0.58 0.97 1.28 1.31 1.26 1.26 1.40 1.61 2.07 2.08 2.24 2.30 2.09 2.08 2.02 1.84 1.71 1.75 2.07 2.44 2.30 2.41 2.64 2.75 2.59 2.60 2.84 2.89 2.38 2.68 3.18 3.35 3.39 3.55 3.74 3.73 3.17 2.72 2.59
0.12 0.14 0.10 0.10 0.13 0.18 0.21 0.29 0.34 0.41 0.85 1.31 1.75 1.58 1.38 1.49 1.62 1.88 2.30 2.53 2.51 2.63 2.39 2.32 2.19 1.93 1.68 1.84 1.76 2.01 2.26 2.50 2.65 2.60 2.58 2.67 2.56 2.49 2.50 2.92 3.48 3.68 3.62 3.57 3.81 3.67 3.08 3.03 3.15
0.08 0.10 0.12 0.14 0.17 0.19 0.25 0.30 0.39 0.51 0.80 0.91 1.14 1.39 1.51 1.70 1.94 2.21 2.39 2.63 2.65 2.75 2.63 2.68 2.38 2.25 2.27 2.08 1.76 1.67 1.76 2.01 2.36 2.67 2.66 2.79 3.08 3.09 3.02 3.25 3.35 3.60 3.74 3.99 3.69 3.71 3.53 3.49 3.33
0.08 0.10 0.13 0.14 0.16 0.19 0.24 0.27 0.40 0.56 0.63 0.68 0.98 1.35 1.70 1.82 2.11 2.43 2.53 2.81 2.72 2.71 2.74 2.84 2.68 2.52 2.58 2.32 2.05 1.82 1.96 2.00 2.14 2.45 2.73 2.86 3.26 3.55 3.48 3.42 3.43 3.40 3.34 3.46 3.50 3.38 3.71 3.89 3.48
0.06 0.09 0.10 0.11 0.16 0.20 0.24 0.30 0.43 0.61 0.69 0.85 1.06 1.35 1.68 1.99 2.21 2.37 2.80 2.96 3.03 2.96 3.04 2.88 2.86 2.83 2.79 2.69 2.61 2.53 2.28 2.40 2.39 2.47 2.56 2.79 3.27 3.71 3.79 3.61 3.49 3.26 3.14 3.20 3.33 3.45 3.89 3.87 3.69
0.09 0.14 0.15 0.17 0.22 0.22 0.28 0.50 0.65 0.78 0.80 0.93 1.12 1.27 1.62 2.15 2.39 2.43 2.77 2.93 2.87 3.27 3.34 3.37 3.34 3.48 3.41 3.23 3.11 2.89 2.68 2.55 2.62 2.82 2.92 2.91 3.13 3.49 3.45 3.25 3.10 3.05 3.10 3.28 3.32 3.51 3.69 3.41 3.45
0.11 0.25 0.30 0.28 0.27 0.24 0.35 0.75 0.85 0.93 0.90 1.05 1.21 1.37 1.68 2.00 2.33 2.47 2.76 2.96 3.05 3.45 3.66 3.88 3.83 3.89 3.72 3.70 3.67 3.38 3.10 2.93 2.81 2.82 2.94 2.80 2.81 2.98 3.28 3.06 2.93 3.21 3.21 3.32 3.62 3.78 3.70 3.69 3.74
0.16 0.23 0.27 0.28 0.23 0.24 0.33 0.65 0.81 0.97 1.15 1.30 1.43 1.57 1.63 1.92 2.24 2.59 2.85 3.19 3.48 3.84 4.17 4.46 4.48 4.32 4.02 4.06 4.04 3.83 3.66 3.35 3.00 2.84 2.81 2.71 2.72 2.88 3.22 3.24 3.32 3.35 3.47 3.51 3.33 3.78 3.84 3.80 3.84
0.16 0.20 0.24 0.26 0.22 0.25 0.44 0.69 0.81 1.00 1.26 1.28 1.51 1.66 1.74 1.84 2.29 2.73 2.93 3.33 3.79 4.31 4.75 4.68 4.66 4.84 4.69 4.55 4.42 4.11 3.62 3.19 3.04 3.01 2.85 2.74 2.83 2.95 3.38 3.25 3.23 3.29 3.50 3.61 3.57 3.73 3.79 3.54 3.54
0.11 0.16 0.21 0.26 0.23 0.27 0.44 0.72 1.03 1.17 1.48 1.38 1.38 1.53 1.66 1.78 2.10 2.54 2.83 3.35 3.95 4.39 4.81 5.01 5.08 4.96 4.79 4.44 4.14 3.89 3.64 3.42 3.17 2.98 2.88 2.82 2.75 2.97 3.44 3.21 3.49 3.42 3.45 3.50 3.55 3.71 3.63 3.35 3.54
0.12 0.17 0.21 0.26 0.26 0.34 0.53 0.78 1.12 1.18 1.26 1.28 1.18 1.23 1.41 1.76 2.03 2.55 2.87 3.07 3.50 4.02 4.50 4.83 5.01 4.90 4.52 4.16 4.01 3.92 3.88 3.47 3.20 3.17 3.33 3.15 3.15 3.18 3.22 3.45 3.39 3.44 3.62 3.59 3.56 3.72 3.50 3.14 3.42
0.15 0.18 0.21 0.23 0.26 0.45 0.61 1.11 1.36 1.24 1.25 1.24 1.17 1.23 1.41 1.85 2.31 2.61 2.81 2.94 3.19 3.59 3.90 4.01 4.19 4.17 4.01 4.05 4.07 4.04 4.08 3.67 3.61 3.62 3.63 3.41 3.42 3.44 3.45 3.41 3.32 3.35 3.19 3.30 3.39 3.41 3.42 3.34 3.26
0.18 0.16 0.16 0.19 0.30 0.57 0.67 1.38 1.79 1.51 1.42 1.50 1.46 1.41 1.67 1.96 2.01 2.21 2.50 2.77 2.94 3.18 3.49 3.71 3.78 3.73 3.66 3.79 3.85 3.76 3.58 3.46 3.63 3.91 3.84 3.58 3.37 3.26 3.09 3.03 3.19 3.21 3.00 3.09 2.74 2.91 3.10 3.10 2.95
0.15 0.16 0.19 0.25 0.34 0.55 0.72 1.11 1.67 1.61 1.76 1.73 1.56 1.61 1.87 1.85 1.75 1.86 2.07 2.39 2.51 2.84 3.11 3.32 3.58 3.67 3.62 3.70 3.69 3.73 3.56 3.55 3.61 3.62 3.68 3.48 3.31 3.00 2.67 2.70 2.92 2.89 2.80 2.72 2.62 2.82 2.64 2.56 2.63
0.14 0.19 0.30 0.39 0.55 0.95 0.78 0.90 1.48 1.57 1.50 1.50 1.48 1.43 1.60 1.56 1.53 1.75 1.93 2.22 2.38 2.51 2.65 2.76 2.98 3.25 3.42 3.47 3.44 3.49 3.45 3.43 3.39 3.38 3.28 3.08 2.94 2.74 2.43 2.32 2.51 2.64 2.69 2.67 2.62 2.69 2.56 2.58 2.71
0.16 0.29 0.73 1.11 1.30 1.29 0.70 0.82 1.34 1.25 1.17 1.19 1.30 1.33 1.34 1.28 1.27 1.49 1.65 1.83 2.04 2.15 2.26 2.41 2.71 3.05 3.13 3.10 3.05 3.17 3.25 3.26 3.20 3.18 3.04 2.83 2.60 2.39 2.32 2.34 2.46 2.49 2.55 2.43 2.48 2.53 2.54 2.71 2.79
0.19 0.26 0.66 0.98 1.08 1.07 0.88 1.27 1.68 1.26 1.09 1.12 1.22 1.21 1.16 1.08 1.03 1.16 1.43 1.74 1.92 1.91 1.98 2.13 2.44 2.72 2.76 2.68 2.82 3.09 3.17 3.20 3.12 3.17 2.86 2.60 2.39 2.34 2.44 2.43 2.29 2.25 2.34 2.21 2.48 2.41 2.47 2.71 2.78
0.19 0.21 0.30 0.50 0.59 0.88 1.14 1.43 1.43 0.98 0.91 0.97 1.03 1.07 1.18 1.11 1.02 1.09 1.19 1.41 1.55 1.62 1.69 1.84 2.27 2.55 2.64 2.72 2.84 2.98 3.10 3.07 3.04 2.95 2.67 2.41 2.43 2.38 2.51 2.47 2.38 2.25 2.32 2.42 2.71 2.66 2.60 2.83 2.83
0.18 0.22 0.27 0.39 0.65 1.01 1.21 1.50 1.61 1.13 0.92 0.70 0.68 0.78 0.85 0.86 0.86 0.94 0.99 1.11 1.22 1.40 1.67 1.86 2.02 2.35 2.46 2.56 2.72 2.77 3.00 2.90 2.74 2.70 2.48 2.24 2.14 2.22 2.43 2.56 2.45 2.31 2.36 2.55 2.75 2.74 2.89 3.07 3.11
0.20 0.22 0.26 0.30 0.44 0.76 1.28 1.47 1.12 0.91 0.77 0.74 0.72 0.81 0.85 0.81 0.77 0.82 0.96 1.09 1.19 1.33 1.55 1.69 1.74 1.97 2.17 2.31 2.51 2.50 2.50 2.57 2.64 2.49 2.23 2.15 2.18 2.28 2.33 2.43 2.43 2.37 2.42 2.57 2.64 2.61 2.93 3.08 3.11
0.20 0.19 0.23 0.32 0.33 0.44 0.79 1.12 0.80 0.79 0.81 0.79 0.79 0.87 0.95 0.91 0.83 0.88 1.05 1.18 1.26 1.40 1.45 1.50 1.58 1.80 2.01 2.21 2.42 2.49 2.48 2.54 2.58 2.44 2.25 2.25 2.31 2.31 2.24 2.30 2.31 2.20 2.23 2.46 2.49 2.55 2.85 3.01 2.89